SCOUT X-4 R/B, 871

Orbit data source: Space-Track

SCOUT X-4 R/B, 871 is space debris in LEO originally from a launch on Tue, 25 Aug 1964 UTC launched from the Air Force Western Test Range (AFWTR). Debris objects in space refer to the collection of defunct objects orbiting the Earth. Examples of debris include non-operational satellites, rocket bodies, and fragments generated from explosions, collisions, or faulty payload assembly.

Loading next visibility...
SCOUT X-4 R/B details
Identifier
871, 1964-051B
Orbit
LEO
Last TLE update14 hours ago
Origin
Flag of USNASA LaRC (US)
ManufacturerABL
MissionSpacecraft
Bus & MotorALTAIR, Unknown motor
Mass33 kg wet, 33 kg dry
Launch date (UTC)
1964-08-25 (60 years ago)
Launch vehicleUnknown
Launch site
Air Force Western Test Range (AFWTR)
Object type
Payload
Rocket body
Debris
Shape & HBRCyl, 1.5 m
Radar Cross Section0.687 m², Medium (>0.1 m² and < 1m²)

Expand to show TLE details & history

TLE from 14 hours ago
0 SCOUT X-4 R/B
1   871U 64051B   24356.02562705  .00000424  00000-0  27217-3 0  9991
2   871  79.8939 307.8226 0086410 153.5029 207.0589 14.00300542 69291
Epoch: 2024-12-21T00:36Z
Definitive object data (Epoch: 2024-12-21T00:36:54.177Z)
Latitude-0.00006°
Longitude-151.48585°
Altitude951.667 km
Speed7.347 km/s
True Right ascension20h 31m 17s
True Declination0° 00' 00"
Sunlit
Object was in daylight at TLE epoch
Visualization TLE readout
Latitude26.76907°
Longitude22.71858°
Altitude833.112 km
Speed7.471 km/s
Apparent Right ascension05h 38m 15s
Apparent Declination-5° 57' 23"
Sunlit
Object is in full shadow
Visualization observer readout
Local Sidereal Time14:05:45
Azimuth290.873° WNW
Elevation-31.626°
Doppler factor1
Orbital elements
Apogee altitude952.815 km
Perigee altitude827.207 km
Semi-major axis7,268.148 km
Eccentricity0.008641
Inclination79.8939°
RAAN307.8226°
Arg. of periapsis153.5029°
True anomaly206.61276°
Mean anomaly207.0589°
Eccentric anomaly206.8354°
Mean motion3.50274 °/min
BSTAR0.00027217
Orbital period102.78 mins
Loading maneuver chart data...
Loading historical data...
Loading historical data...
Loading historical data...
Loading historical data...
Loading historical data...
Loading historical data...
Loading historical data...

SCOUT X-4 R/B Visibility forecast

Observer location: undefined°, undefined

Span
Click to sort rows by Start time (UTC) header in descending order
Start Az.
Max El. time (UTC)
Max El. Az.
Max El.
End time (UTC)
End Az.
11 mins2024-12-21 21:17:31.702Z165.061° S2024-12-21 21:23:31.702Z80.825° E35.101°2024-12-21 21:28:31.702Z24.109° NE
8 mins2024-12-21 23:03:31.702Z245.319° WSW2024-12-21 23:07:31.702Z296.122° NW22.709°2024-12-21 23:11:31.702Z342.673° N
8 mins2024-12-22 08:04:31.702Z11.425° NNE2024-12-22 08:08:31.702Z84.336° E33.21°2024-12-22 08:12:31.702Z140.209° SSE
6 mins2024-12-22 09:49:31.702Z303.327° NW2024-12-22 09:51:31.702Z275.053° WNW21.084°2024-12-22 09:55:31.702Z223.83° SW
|